Milas, Turkey

1:44 PM +03 on January 16, 2018 (GMT +0300)
Bodrum

Weather History for LTFE - December, 2012

Change the Weather History Date:

Thursday, December 20, 2012

  Actual Average Record
Temperature  
Mean Temperature 50 °F -  
Max Temperature 57 °F - - ()
Min Temperature 41 °F - - ()
Degree Days  
Heating Degree Days 16    
Moisture  
Dew Point 40 °F    
Average Humidity 74    
Maximum Humidity 93    
Minimum Humidity 54    
Precipitation  
Precipitation 0.00 in - - ()
Sea Level Pressure  
Sea Level Pressure 29.66 in    
Wind  
Wind Speed 5 mph ()    
Max Wind Speed 13 mph    
Max Gust Speed -    
Visibility 6.2 miles    
Events      
T = Trace of Precipitation, MM = Missing Value Source: Averaged Metar Reports

Daily Weather History Graph

Daily Weather History Graph

Search for Another Location

Airport or City:

Trip Planner

Search our weather history database for the weather conditions in past years. The results will help you decide how hot, cold, wet, or windy it might be!

Date:

Astronomy

Dec. 20, 2012 Rise Set
Actual Time 7:19 AM EET 4:55 PM EET
Civil Twilight 6:49 AM EET 5:24 PM EET
Nautical Twilight 6:17 AM EET 5:56 PM EET
Astronomical Twilight 5:45 AM EET 6:28 PM EET
Moon 11:56 AM EET (12/20) No Moon Set
Length of Visible Light 10h 34m
Length of Day
9h 36m
First Quarter, 52% of the Moon is Illuminated
Dec 20
First Quarter
Dec 28
Full
Jan 5
Last Quarter
Jan 11
New
Jan 19
First Quarter

Hourly Weather History & Observations

Time (EET) Temp. Windchill Dew Point Humidity Pressure Visibility Wind Dir Wind Speed Gust Speed Precip Events Conditions
12:20 AM 46.4 °F 45.2 °F 42.8 °F 87% 29.62 in 6.2 mi East 3.5 mph - N/A   Mostly Cloudy
12:50 AM 44.6 °F 42.2 °F 42.8 °F 93% 29.62 in 6.2 mi SSE 4.6 mph - N/A   Scattered Clouds
1:20 AM 44.6 °F 40.7 °F 42.8 °F 93% 29.62 in 6.2 mi SE 6.9 mph - N/A   Scattered Clouds
1:50 AM 44.6 °F 43.1 °F 41.0 °F 87% 29.62 in 6.2 mi Variable 3.5 mph - N/A   Scattered Clouds
2:20 AM 42.8 °F - 41.0 °F 93% 29.62 in 6.2 mi Calm Calm - N/A   Scattered Clouds
2:50 AM 42.8 °F - 41.0 °F 93% 29.62 in 6.2 mi Variable 2.3 mph - N/A   Scattered Clouds
3:20 AM 42.8 °F 40.1 °F 41.0 °F 93% 29.62 in 6.2 mi SSE 4.6 mph - N/A   Scattered Clouds
3:50 AM 44.6 °F - 42.8 °F 93% 29.62 in 6.2 mi Variable 2.3 mph - N/A   Scattered Clouds
4:20 AM 44.6 °F 43.1 °F 42.8 °F 93% 29.59 in 6.2 mi SSE 3.5 mph - N/A   Mostly Cloudy
4:50 AM 44.6 °F 42.2 °F 42.8 °F 93% 29.59 in 6.2 mi ESE 4.6 mph - N/A   Mostly Cloudy
5:20 AM 46.4 °F 44.3 °F 42.8 °F 87% 29.62 in 6.2 mi South 4.6 mph - N/A   Mostly Cloudy
5:50 AM 46.4 °F 45.2 °F 44.6 °F 93% 29.62 in 6.2 mi SSE 3.5 mph - N/A   Mostly Cloudy
6:20 AM 44.6 °F 42.2 °F 42.8 °F 93% 29.62 in 6.2 mi East 4.6 mph - N/A   Mostly Cloudy
6:50 AM 46.4 °F 45.2 °F 42.8 °F 87% 29.62 in 6.2 mi ESE 3.5 mph - N/A   Mostly Cloudy
7:20 AM 46.4 °F - 42.8 °F 87% 29.62 in 6.2 mi Variable 1.2 mph - N/A   Mostly Cloudy
7:50 AM 46.4 °F - 44.6 °F 93% 29.62 in 6.2 mi Calm Calm - N/A   Mostly Cloudy
8:50 AM 50.0 °F - 46.4 °F 87% 29.62 in 6.2 mi Variable 1.2 mph - N/A   Mostly Cloudy
9:20 AM 50.0 °F - 44.6 °F 82% 29.62 in 6.2 mi SE 3.5 mph - N/A   Mostly Cloudy
9:50 AM 50.0 °F - 44.6 °F 82% 29.65 in 6.2 mi Variable 1.2 mph - N/A   Mostly Cloudy
10:20 AM 53.6 °F - 44.6 °F 72% 29.65 in 6.2 mi Variable 2.3 mph - N/A   Mostly Cloudy
10:50 AM 53.6 °F - 42.8 °F 67% 29.65 in 6.2 mi Variable 3.5 mph - N/A   Mostly Cloudy
11:20 AM 53.6 °F - 44.6 °F 72% 29.65 in 6.2 mi Variable 2.3 mph - N/A   Mostly Cloudy
11:50 AM 55.4 °F - 42.8 °F 63% 29.65 in 6.2 mi Variable 3.5 mph - N/A   Mostly Cloudy
12:20 PM 57.2 °F - 42.8 °F 59% 29.62 in 6.2 mi WNW 6.9 mph - N/A   Mostly Cloudy
12:50 PM 55.4 °F - 41.0 °F 58% 29.62 in 6.2 mi NW 6.9 mph - N/A   Mostly Cloudy
1:20 PM 57.2 °F - 41.0 °F 55% 29.62 in 6.2 mi NNW 8.1 mph - N/A   Mostly Cloudy
1:50 PM 55.4 °F - 39.2 °F 54% 29.62 in 6.2 mi NNW 9.2 mph - N/A   Mostly Cloudy
2:20 PM 57.2 °F - 42.8 °F 59% 29.62 in 6.2 mi West 11.5 mph - N/A   Mostly Cloudy
2:50 PM 55.4 °F - 41.0 °F 58% 29.62 in 6.2 mi NNW 6.9 mph - N/A   Scattered Clouds
3:20 PM 53.6 °F - 39.2 °F 58% 29.62 in 6.2 mi North 11.5 mph - N/A   Scattered Clouds
3:50 PM 53.6 °F - 39.2 °F 58% 29.65 in 6.2 mi North 11.5 mph - N/A   Scattered Clouds
4:20 PM 51.8 °F - 37.4 °F 58% 29.65 in 6.2 mi North 9.2 mph - N/A   Scattered Clouds
4:50 PM 50.0 °F - 37.4 °F 62% 29.68 in 6.2 mi North 10.4 mph - N/A   Partly Cloudy
5:20 PM 50.0 °F - 35.6 °F 58% 29.68 in 6.2 mi NW 10.4 mph - N/A   Partly Cloudy
5:50 PM 48.2 °F - 37.4 °F 66% 29.71 in 6.2 mi NNW 9.2 mph - N/A   Partly Cloudy
6:20 PM 50.0 °F - 37.4 °F 62% 29.71 in 6.2 mi North 9.2 mph - N/A   Partly Cloudy
6:50 PM 48.2 °F - 35.6 °F 62% 29.74 in 6.2 mi North 9.2 mph - N/A   Partly Cloudy
7:20 PM 48.2 °F - 35.6 °F 62% 29.74 in 6.2 mi North 12.7 mph - N/A   Partly Cloudy
7:50 PM 46.4 °F 42.9 °F 35.6 °F 66% 29.74 in 6.2 mi North 6.9 mph - N/A   Partly Cloudy
8:20 PM 46.4 °F 41.5 °F 33.8 °F 62% 29.74 in 6.2 mi NNW 10.4 mph - N/A   Partly Cloudy
8:50 PM 44.6 °F 38.8 °F 33.8 °F 66% 29.77 in 6.2 mi North 11.5 mph - N/A   Partly Cloudy
9:20 PM 44.6 °F 38.4 °F 33.8 °F 66% 29.77 in 6.2 mi NNE 12.7 mph - N/A   Partly Cloudy
9:50 PM 44.6 °F 42.2 °F 33.8 °F 66% 29.77 in 6.2 mi Variable 4.6 mph - N/A   Partly Cloudy
10:20 PM 42.8 °F 36.2 °F 32.0 °F 66% 29.77 in 6.2 mi North 12.7 mph - N/A   Partly Cloudy
10:50 PM 42.8 °F 36.6 °F 32.0 °F 66% 29.80 in 6.2 mi North 11.5 mph - N/A   Partly Cloudy
11:20 PM 42.8 °F 37.5 °F 32.0 °F 66% 29.80 in 6.2 mi North 9.2 mph - N/A   Partly Cloudy
11:50 PM 41.0 °F - 32.0 °F 70% 29.80 in 6.2 mi Variable 2.3 mph - N/A   Partly Cloudy